Regional Weather Roundup
Issued by NWS

Home | Current Version | Previous Version | Graphics & Text | Print | Product List | Glossary On
Versions: 1 2 3 4 5 6 7 8 9 10 11 12 13 14 15 16 17 18 19 20 21 22 23 24 25 26 27 28 29 30 31 32 33 34 35 36 37 38 39 40 41 42 43 44 45 46 47 48 49 50
000
ASUS43 KDTX 261910
RWRMI
MICHIGAN HOURLY REGIONAL WEATHER ROUNDUP
NATIONAL WEATHER SERVICE DETROIT/PONTIAC MI
300 PM EDT TUE JUL 26 2016

NOTE: "FAIR" INDICATES FEW OR NO CLOUDS BELOW 12,000 FEET WITH NO
SIGNIFICANT WEATHER AND/OR OBSTRUCTION TO VISIBILITY.

MIZ047>049-052>055-059>063-066>070-074>076-081>083-262000-
SOUTHEAST LOWER MICHIGAN

CITY           SKY/WX    TMP DP  RH WIND       PRES   REMARKS
ADRIAN         PTSUNNY   85  58  39 VRB5      30.05F
ALMA           SUNNY     87  61  40 W6        30.03S
ANN ARBOR      MOSUNNY   88  60  38 MISG      30.03F
BAD AXE        MOSUNNY   83  57  40 W7G23     30.02F
CARO           MOSUNNY   86  61  42 W7        30.01F
DETROIT CITY   PTSUNNY   83  61  47 E9        30.03F
DETROIT        PTSUNNY   84  63  49 SE10      30.03F
FLINT          MOSUNNY   92  59  33 W8        30.03F HX  91
GROSSE ILE     SUNNY     80  67  63 S9        30.04S
HOWELL         PTSUNNY   84  55  37 CALM      30.04F

CITY           SKY/WX    TMP DP  RH WIND       PRES   REMARKS
JACKSON        MOSUNNY   85  58  39 VRB6      30.05F
LAMBERTVILLE   SUNNY     84  58  40 SE5       30.05F
LANSING        MOSUNNY   85  59  41 MISG      30.04F
LAPEER         FAIR      85  55  36 CALM      30.03F
MASON          MOSUNNY   84  61  45 S6        30.05F
MONROE         SUNNY     82  67  60 S10G16    30.04F
MT. CLEMENS    MOSUNNY   83  65  55 SE9       30.02F
PONTIAC        PTSUNNY   85  58  39 W6        30.03F
PORT HURON     MOSUNNY   81  63  54 CALM      30.02F
TRI CITIES     MOSUNNY   86  64  47 W9        30.02F
MIDLAND        FAIR      86  57  36 W8        30.01S
TROY           PTSUNNY   87  52  29 SW5       30.05S
SAGINAW HB     PTSUNNY   86  57  37 W6        30.01S
$$
MIZ043>046-050>051-056>058-064>065-071>073-077>080-262000-
SOUTHWEST LOWER MICHIGAN

CITY           SKY/WX    TMP DP  RH WIND       PRES   REMARKS
BATTLE CREEK   MOSUNNY   79  61  53 MISG      30.06F
BENTON HARBOR  SUNNY     83  64  52 W8        30.05F
BIG RAPIDS     SUNNY     84  57  39 NW6       30.04S
COLDWATER      MOSUNNY   82  60  47 CALM      30.06F
FREMONT        FAIR      86  58  38 W7        30.03S
HOLLAND        SUNNY     83  66  56 W10       30.06R
GRAND RAPIDS   PTSUNNY   85  61  44 CALM      30.04S
IONIA          PTSUNNY   85  59  41 SW6       30.03S
KALAMAZOO      CLOUDY    84  61  45 CALM      30.05F
LUDINGTON      SUNNY     81  65  57 W8        30.04S
MARSHALL       MOSUNNY   83  60  45 CALM      30.05F
MOUNT PLEASANT MOSUNNY   85  59  40 W10       30.02S
MUSKEGON       MOSUNNY   84  64  50 W9        30.04S
SOUTH HAVEN    SUNNY     82  64  54 NW10      30.05S
$$
MIZ016>042-262000-
NORTHERN LOWER MICHIGAN

CITY           SKY/WX    TMP DP  RH WIND       PRES   REMARKS
ALPENA         MOSUNNY   87  52  29 VRB3      29.98F
BEAVER ISLAND  SUNNY     79  63  57 SW13      29.99F
BELLAIRE       SUNNY     85  57  38 W3        30.00F
CADILLAC       MOSUNNY   85  57  39 CALM      30.04F
CHARLEVOIX     SUNNY     85  59  41 W13       30.02F
FRANKFORT      SUNNY     81  61  50 SW8       30.02F
GAYLORD        SUNNY     84  55  36 NW8       30.02F
GRAYLING       MOSUNNY   87  56  35 NW9G17    30.02F
HARBOR SPRINGS SUNNY     83  61  48 W9        29.99F
HOUGHTON LAKE  MOSUNNY   84  58  40 S8        30.03F
MANISTEE       SUNNY     84  61  45 W12       30.02F
OSCODA         PTSUNNY   84  58  41 S15G23    29.98F
PELLSTON       SUNNY     85  59  41 W13       29.99
ROGERS CITY    SUNNY     77  64  62 NE7       29.99F
TRAVERSE CITY  MOSUNNY   88  57  34 VRB5      29.97F
$$
MIZ007>008-015-262000-
EASTERN UPPER MICHIGAN

CITY           SKY/WX    TMP DP  RH WIND       PRES   REMARKS
KINROSS        MOSUNNY   85  63  47 SW10      29.96F
MACKINAC ISLAN SUNNY     77  62  60 SW10G20   29.98F
NEWBERRY       MOSUNNY   86  61  42 SW13      29.95F
S. S. MARIE    SUNNY     85  62  46 SW7       29.94F
MUNISING         N/A     77  68  73 VRB3      29.93
$$
MIZ004>006-011>014-085-262000-
CENTRAL UPPER MICHIGAN

CITY           SKY/WX    TMP DP  RH WIND       PRES   REMARKS
MANISTIQUE     SUNNY     76  69  78 S10       29.96F
ESCANABA       SUNNY     82  68  61 S14       29.94F
MENOMINEE      MOSUNNY  N/A N/A N/A S8        29.98F
SAWYER-GWINN   PTSUNNY   84  63  48 W13G20    29.96F
$$
MIZ001>003-009>011-084-262000-
WESTERN UPPER MICHIGAN

CITY           SKY/WX    TMP DP  RH WIND       PRES   REMARKS
IRON MOUNTAIN  SUNNY     89  62  40 SW7       29.97F
HOUGHTON       MOSUNNY   85  66  53 NW9       29.91F
COPPER HARBOR    N/A     75  66  73 N6        29.91F
IRONWOOD       CLOUDY   N/A N/A N/A W10       29.92F
$$

ABBREVIATIONS USED IN REMARKS
   TC - TEMPERATURE IN CELSIUS
  WCI - WIND CHILL INDEX
   HX - HEAT INDEX
  VSB - VISIBILITY




USA.gov is the U.S. government's official web portal to all federal, state and local government web resources and services.